Location: Bonny Doon Airfield
(37.0704°N, 122.1252°W)
Time: 07:53:34
(UTC-08:00)

BREEZE M DEB (TANK) - Visible Passes

Search period start: 27 November 2014 00:00
Search period end: 07 December 2014 00:00
Orbit: 341 x 13811 km, 49.6° (Epoch: 26 November)

Date Brightness Start Highest point End Pass type
(mag) Time Alt. Az. Time Alt. Az. Time Alt. Az.
27 Nov 5.5 20:20:06 10° WSW 20:42:30 59° WNW 20:42:30 59° WNW visible
28 Nov 6.0 17:22:07 10° SSW 18:09:11 56° SE 18:16:55 21° ENE visible
28 Nov 7.4 22:35:23 10° WNW 22:35:48 11° WNW 22:35:48 11° WNW visible
29 Nov 5.2 19:41:10 10° WSW 20:09:30 71° NW 20:10:12 69° N visible
30 Nov 6.4 16:43:38 10° SSW 17:34:22 51° SE 17:44:36 12° ENE visible
30 Nov 7.0 21:58:55 10° W 22:03:28 18° WNW 22:03:28 18° WNW visible
01 Dec 5.2 19:01:38 10° SW 19:35:23 81° NW 19:37:50 56° NE visible
02 Dec 6.5 21:21:50 10° W 21:31:03 27° WNW 21:31:03 27° WNW visible
03 Dec 5.4 18:21:39 10° SW 19:01:07 90° NW 19:05:23 39° NE visible
04 Dec 6.0 20:44:01 10° W 20:58:34 37° NW 20:58:34 37° NW visible
05 Dec 5.8 17:41:21 10° SW 18:26:38 82° SE 18:32:52 26° ENE visible
06 Dec 5.5 20:05:25 10° WSW 20:25:51 46° NNW 20:26:01 46° NNW visible
